date,time,DOY,Ta_1_1_1,RH_1_1_1,LWin_1_1_1,LWout_1_1_1,SWin_1_1_1,SWout_1_1_1,PPFD_1_1_1,SWC_1_1_1,Ts_1_1_1
[yyyy-mm-dd],[HH:MM],[ddd.ddd],[K],[%],[W+1m-2],[W+1m-2],[W+1m-2],[W+1m-2],[µmol+1m-2s-1],[m+3m-3],[K]
2013-01-05,00:30,5.020,268.49666666666667,80.064333333333323,-8.7110000000000039,-9999.0,-0.76866666666666650,-1.6853333333333331,6.00000000000000099E-003,-9999.0,279.90999999999991
2013-01-05,01:00,5.041,268.31033333333340,79.595999999999989,-9.2300000000000004,-9999.0,-0.76900000000000013,-1.8916666666666668,6.00000000000000099E-003,-9999.0,279.90999999999991
2013-01-05,01:30,5.062,268.18400000000003,80.262333333333331,-9.5866666666666660,-9999.0,-1.0886666666666664,-2.1559999999999997,5.00000000000000010E-003,-9999.0,279.90999999999991
2013-01-05,02:00,5.083,268.07966666666664,80.575666666666663,-8.7846666666666646,-9999.0,-0.75500000000000012,-1.8946666666666661,4.33333333333333313E-003,-9999.0,279.90999999999991
2013-01-05,02:30,5.104,267.87633333333338,81.643000000000001,-9.1155172413793100,-9999.0,-0.44466666666666671,-2.5709999999999997,7.66666666666666712E-003,-9999.0,279.90999999999991
2013-01-05,03:00,5.124,267.63033333333328,82.730333333333348,-9999.0,-9999.0,-4.36666666666667008E-002,-3.8373333333333335,8.66666666666666800E-003,-9999.0,279.90999999999991
2013-01-05,03:30,5.145,267.11099999999999,84.982333333333344,-9999.0,-9999.0,0.15933333333333335,-4.2740000000000000,9.00000000000000105E-003,-9999.0,279.90999999999991
2013-01-05,04:00,5.166,266.61966666666666,87.770333333333355,-9999.0,-9999.0,2.46666666666666701E-002,-3.5643333333333334,9.00000000000000105E-003,-9999.0,279.90999999999991
2013-01-05,04:30,5.187,266.03000000000009,89.824333333333300,-9999.0,-9999.0,-0.16433333333333336,-3.2256666666666671,1.40000000000000020E-002,-9999.0,279.90999999999991
2013-01-05,05:00,5.208,265.90666666666669,90.253333333333330,-9999.0,-9999.0,0.33633333333333332,-3.4436666666666667,1.56666666666666690E-002,-9999.0,279.90999999999991
2013-01-05,05:30,5.229,266.05766666666671,90.176333333333332,-9999.0,-9999.0,0.30700000000000000,-3.3676666666666666,1.23333333333333333E-002,-9999.0,279.90999999999991
2013-01-05,06:00,5.249,265.97033333333337,90.439999999999984,-9.6422222222222231,-9999.0,0.26566666666666677,-3.3823333333333334,1.20000000000000002E-002,-9999.0,279.90999999999991
2013-01-05,06:30,5.270,265.67933333333332,91.283333333333331,-8.9580000000000002,-9999.0,0.20100000000000004,-3.2666666666666671,1.10000000000000028E-002,-9999.0,279.90999999999991
2013-01-05,07:00,5.291,265.59233333333327,91.637333333333316,-8.4606666666666648,-9999.0,0.25866666666666666,-3.0596666666666668,1.83333333333333369E-002,-9999.0,279.90999999999991
2013-01-05,07:30,5.312,265.66366666666670,91.097333333333353,-8.0956666666666663,-9999.0,0.35566666666666674,-2.4223333333333334,0.88599999999999990,-9999.0,279.90999999999991
2013-01-05,08:00,5.333,265.65066666666667,90.296000000000021,-7.7986666666666666,-9999.0,3.8286666666666664,10.465333333333335,21.250666666666671,-9999.0,279.90999999999991
2013-01-05,08:30,5.354,265.68466666666666,88.900333333333322,-8.6003333333333316,-9999.0,11.902999999999999,64.939333333333337,96.594333333333353,-9999.0,279.90999999999991
2013-01-05,09:00,5.374,266.32333333333338,86.240666666666655,-9.2599999999999998,-9999.0,20.649999999999999,129.52933333333328,203.11900000000000,-9999.0,279.90999999999991
2013-01-05,09:30,5.395,267.07200000000000,83.682999999999979,-9.4567857142857132,-9999.0,28.841333333333335,186.71866666666668,314.63199999999995,-9999.0,279.90999999999991
2013-01-05,10:00,5.416,267.83666666666664,80.837666666666635,-9.1150000000000002,-9999.0,37.231666666666662,235.48099999999997,420.81799999999998,-9999.0,279.90999999999991
2013-01-05,10:30,5.437,268.64800000000002,76.949000000000012,-8.8113333333333337,-9999.0,44.806666666666686,281.35300000000001,515.84600000000000,-9999.0,279.90999999999991
2013-01-05,11:00,5.458,269.63633333333337,71.094333333333324,-8.4946666666666673,-9999.0,50.714666666666659,320.10766666666660,592.32466666666664,-9999.0,279.90999999999991
2013-01-05,11:30,5.479,270.30666666666667,66.982666666666660,-9.0952000000000002,-9999.0,53.574999999999996,345.80266666666665,647.29599999999994,-9999.0,279.90999999999991
2013-01-05,12:00,5.499,270.32133333333331,66.501333333333321,-8.3609999999999989,-9999.0,57.272666666666659,361.06200000000001,676.53700000000003,-9999.0,279.90999999999991
2013-01-05,12:30,5.520,270.90100000000001,64.018000000000015,-9.4321428571428587,-9999.0,56.586000000000006,362.06500000000011,680.62033333333341,-9999.0,279.90999999999991
2013-01-05,13:00,5.541,271.37833333333333,60.652666666666669,-9.8073333333333323,-9999.0,53.586666666666680,344.97900000000004,648.43466666666666,-9999.0,279.90999999999991
2013-01-05,13:30,5.562,271.90833333333342,56.705666666666680,-9.9100000000000001,-9999.0,40.369333333333323,264.27666666666670,504.09566666666655,-9999.0,279.90999999999991
2013-01-05,14:00,5.583,271.89233333333334,54.754999999999995,-9999.0,-9999.0,45.812666666666672,299.80666666666673,558.52066666666656,-9999.0,279.90999999999991
2013-01-05,14:30,5.604,271.99633333333333,54.649999999999999,-9999.0,-9999.0,33.131666666666668,237.31900000000002,444.93999999999988,-9999.0,279.90999999999991
2013-01-05,15:00,5.624,271.83266666666663,54.253666666666646,-9999.0,-9999.0,17.669666666666668,126.40033333333334,252.27066666666670,-9999.0,279.90999999999991
2013-01-05,15:30,5.645,271.28866666666664,56.940999999999995,-9999.0,-9999.0,11.538000000000000,69.605333333333334,147.25366666666665,-9999.0,279.90999999999991
2013-01-05,16:00,5.666,271.24200000000002,56.148333333333341,-9999.0,-9999.0,9.4436666666666671,54.610999999999997,105.01966666666667,-9999.0,279.90999999999991
2013-01-05,16:30,5.687,270.99300000000005,56.453333333333333,-9999.0,-9999.0,2.4900000000000002,10.115666666666668,28.559333333333338,-9999.0,279.90999999999991
2013-01-05,17:00,5.708,270.15133333333341,61.392666666666663,-9999.0,-9999.0,0.25233333333333330,-3.5769999999999991,2.1110000000000002,-9999.0,279.90999999999991
2013-01-05,17:30,5.729,269.61933333333337,63.861000000000004,-9999.0,-9999.0,0.15466666666666667,-4.3643333333333336,2.76666666666666762E-002,-9999.0,279.90999999999991
2013-01-05,18:00,5.749,268.92833333333323,65.798666666666676,-9999.0,-9999.0,0.17133333333333339,-4.0213333333333336,1.49999999999999977E-002,-9999.0,279.90999999999991
2013-01-05,18:30,5.770,268.44933333333336,68.067666666666668,-9999.0,-9999.0,0.24233333333333335,-3.6783333333333332,1.33333333333333342E-002,-9999.0,279.90999999999991
2013-01-05,19:00,5.791,267.90633333333335,70.767333333333355,-9999.0,-9999.0,0.31133333333333341,-3.2769999999999997,8.66666666666666627E-003,-9999.0,279.90999999999991
2013-01-05,19:30,5.812,267.36299999999994,73.773999999999987,-9.9366666666666674,-9999.0,0.26400000000000007,-3.1859999999999995,1.06666666666666663E-002,-9999.0,279.90999999999991
2013-01-05,20:00,5.833,266.89900000000000,76.068999999999988,-9.3342105263157897,-9999.0,0.22500000000000006,-2.9086666666666665,1.20000000000000055E-002,-9999.0,279.90999999999991
2013-01-05,20:30,5.854,266.71533333333332,76.859333333333311,-9.0669999999999984,-9999.0,0.25500000000000006,-2.5003333333333329,7.66666666666666798E-003,-9999.0,279.90999999999991
2013-01-05,21:00,5.874,266.79066666666671,77.006666666666675,-6.0993333333333348,-7.8062500000000004,-0.27233333333333337,-0.43566666666666681,1.50000000000000064E-002,-9999.0,279.90999999999991
2013-01-05,21:30,5.895,266.80700000000002,78.521000000000001,-5.4773333333333341,-7.5279999999999978,-0.38633333333333325,-0.42666666666666664,8.00000000000000190E-003,-9999.0,279.90999999999991
2013-01-05,22:00,5.916,267.19433333333342,81.468999999999980,-5.9183333333333330,-9.3633333333333351,-0.26799999999999996,-0.54966666666666675,1.03333333333333333E-002,-9999.0,279.90999999999991
2013-01-05,22:30,5.937,267.56500000000000,84.549999999999983,-6.2099999999999982,-9.0115789473684202,-0.38866666666666666,-0.57533333333333347,1.63333333333333351E-002,-9999.0,279.90999999999991
2013-01-05,23:00,5.958,267.92133333333339,87.156333333333336,-5.8556666666666661,-8.1122222222222220,-0.38566666666666671,-0.47599999999999992,1.00000000000000019E-002,-9999.0,279.90999999999991
2013-01-05,23:30,5.979,268.24566666666664,88.241999999999990,-6.1913333333333336,-9999.0,-0.37099999999999994,-0.65833333333333333,9.66666666666666716E-003,-9999.0,279.90999999999991
2013-01-06,00:00,6.000,268.54400000000010,87.097666666666655,-6.0629999999999997,-9999.0,-0.33766666666666662,-0.66233333333333322,1.13333333333333359E-002,-9999.0,279.90999999999991
